Wind_Speed
10 12 14 16 16 16 19 20 20 20 18 17 19 20 19 18 19 19 19 19 18 17 16 16 15 15 15 15 15 15 13 12 12 13 14 14 14 13 13 13 13 13 13 13 13 13 14 14 14 14 16 17 16 16 16 16 15 13 10 9 10 10 11 10 10 11 10 10 10 10 10 10 10 10 9 8 8 8 9 10 8 7 11 13 12
14 14 14 16 16 16 18 18 19 19 17 17 18 19 18 17 18 18 19 18 17 16 15 15 15 15 14 14 14 13 11 11 11 12 13 12 12 12 12 12 12 12 12 12 13 13 13 13 13 14 15 16 16 16 16 16 16 15 12 9 9 10 10 9 9 9 9 9 9 10 10 10 9 9 9 8 8 8 9 9 6 6 11 13 13
16 15 15 17 18 18 18 17 18 18 16 16 17 18 18 17 17 18 18 17 16 15 14 14 14 14 14 13 13 12 11 10 11 12 11 11 11 11 11 11 11 11 11 11 12 12 12 12 13 14 15 15 15 15 15 15 15 15 13 11 9 9 9 8 7 8 8 7 9 10 9 9 9 9 9 8 8 8 8 8 7 8 10 11 12
16 15 15 17 18 19 20 18 18 17 16 16 17 17 17 16 16 17 16 16 15 14 14 14 14 15 14 13 12 12 11 10 11 10 10 10 10 10 10 10 10 11 10 11 12 12 11 11 13 14 14 15 15 15 15 14 14 14 13 12 11 10 9 8 7 7 8 7 8 9 7 8 8 9 8 8 8 8 8 8 8 8 9 11 12
15 16 16 18 18 18 20 18 18 17 15 15 16 16 16 15 16 16 15 15 15 14 14 14 15 15 13 13 12 12 11 10 10 9 9 9 9 10 10 10 10 10 10 10 11 11 11 12 13 13 14 14 14 14 14 14 14 14 13 13 12 11 10 9 7 6 6 7 8 7 6 7 8 8 8 8 8 8 8 8 8 7 9 11 11
15 16 16 18 17 19 20 18 18 16 15 16 16 16 15 15 15 15 15 15 14 14 14 15 15 14 13 12 12 11 10 10 9 9 9 9 9 9 9 9 9 9 10 10 10 11 12 12 12 12 13 14 13 13 13 13 13 13 13 12 13 12 10 10 9 5 5 7 7 6 6 7 7 7 7 8 8 7 8 8 8 7 8 10 11
16 16 16 17 16 20 20 19 19 16 15 17 17 16 15 15 14 14 15 14 14 15 16 15 14 13 12 11 11 10 9 9 8 8 8 8 8 9 9 9 9 9 10 10 10 11 11 11 11 11 12 12 12 13 12 12 12 12 12 12 13 13 11 11 10 6 4 6 5 4 6 7 7 7 7 7 7 6 6 7 7 7 8 8 10
16 16 16 16 17 21 21 19 18 15 15 16 17 16 15 15 14 14 14 14 15 16 16 15 13 12 11 10 9 9 8 8 8 8 7 7 8 8 8 8 8 9 10 10 10 11 10 10 10 10 10 11 12 12 12 12 11 11 11 11 12 12 12 12 11 9 6 5 3 3 6 6 6 6 6 7 7 6 6 6 6 7 8 8 9
15 15 15 15 17 22 21 20 18 15 14 15 16 16 15 14 13 13 14 15 15 15 15 14 12 11 10 9 8 8 7 7 7 6 6 7 7 7 7 7 8 8 9 9 10 10 10 9 9 9 10 10 11 11 11 12 12 11 10 10 10 10 10 10 10 10 7 4 2 3 5 5 5 6 6 6 6 5 6 5 5 7 8 8 9
15 14 14 13 17 21 20 20 19 16 14 14 14 14 14 14 14 14 14 14 15 14 14 13 11 10 9 8 7 7 7 6 6 6 6 6 6 6 6 6 7 8 9 9 10 10 9 8 8 9 9 10 11 11 11 12 12 12 10 9 9 9 9 8 9 9 6 3 2 2 4 5 5 6 5 6 6 5 6 6 6 6 7 9 9
15 14 14 13 17 19 19 18 18 17 15 13 13 14 15 15 14 14 14 14 13 13 12 11 10 9 9 8 7 7 6 6 5 5 5 5 5 5 5 6 7 8 9 10 9 9 9 9 8 8 8 10 11 12 11 10 11 12 11 10 9 8 8 8 8 7 6 4 2 2 3 3 5 5 5 6 5 5 6 6 6 6 7 9 9
15 15 14 15 17 18 18 17 17 17 16 14 14 14 15 14 14 14 14 13 12 12 11 10 9 9 8 8 7 7 6 5 4 5 5 4 4 4 5 6 7 8 9 9 9 9 8 8 7 8 8 10 11 12 12 10 10 10 10 10 9 8 7 7 7 5 5 5 3 3 2 3 4 4 4 5 5 5 5 6 7 6 7 8 9
16 14 15 16 17 17 18 17 17 16 16 15 14 15 15 14 14 14 13 12 11 11 10 9 9 9 8 7 7 6 5 4 4 4 4 3 3 3 4 5 6 7 8 9 9 8 7 7 8 8 9 10 11 11 12 12 11 9 10 10 9 8 6 6 5 4 5 5 4 3 2 3 3 3 4 5 5 4 5 6 7 7 7 7 8
16 15 15 16 17 17 17 18 17 16 16 15 15 16 15 14 13 13 12 11 11 10 10 9 9 8 7 7 6 5 4 3 3 3 2 2 2 2 3 4 6 7 8 9 9 8 7 8 9 9 10 11 11 10 10 12 12 10 10 9 8 8 6 5 4 3 3 4 4 2 3 4 3 3 4 4 5 4 5 5 6 8 8 7 8
16 15 15 16 16 16 17 18 17 16 16 16 17 17 16 15 14 12 12 11 11 10 9 9 8 7 6 6 5 4 4 3 3 3 2 2 1 1 2 4 5 7 8 9 9 9 9 10 10 10 10 10 11 10 9 10 11 11 10 8 7 6 6 4 3 3 2 3 3 2 3 3 2 3 4 4 5 4 4 5 6 7 8 8 7
15 15 15 16 17 16 17 17 16 16 16 17 18 17 16 15 13 12 11 11 10 10 9 8 7 6 6 5 5 4 4 3 3 3 2 2 1 0 2 3 5 7 8 9 9 10 11 11 11 11 10 10 11 9 8 9 9 10 9 8 7 6 6 4 2 2 2 2 3 2 2 2 2 4 5 4 5 5 4 5 6 8 8 8 8
15 14 15 16 17 17 17 17 17 17 18 18 17 16 15 14 13 12 11 11 10 9 8 7 7 6 5 5 4 4 4 3 3 3 2 1 1 1 1 3 5 7 9 10 8 10 11 12 11 11 11 10 10 8 7 7 8 8 8 8 7 7 6 4 2 2 2 2 2 3 1 2 2 4 6 5 5 5 5 4 6 9 9 8 8
15 14 15 16 16 16 17 17 17 17 18 17 16 15 14 13 12 12 11 11 10 9 8 7 7 6 5 5 4 4 4 4 3 3 2 2 2 1 2 3 5 6 8 8 8 9 10 11 11 11 11 10 9 8 7 6 7 7 8 8 6 6 7 4 2 1 2 2 2 2 1 2 3 4 5 6 6 6 6 4 6 9 9 9 9
15 15 15 15 15 15 17 17 17 16 16 15 14 13 13 13 12 12 11 10 10 9 8 8 7 6 6 5 5 5 4 4 4 3 3 3 2 1 2 3 4 6 7 7 8 10 11 11 11 10 10 9 9 8 7 6 6 7 8 7 6 6 6 4 1 1 1 2 1 1 1 1 3 5 5 6 7 7 6 5 6 8 9 10 9
15 15 14 14 14 15 16 16 16 15 15 14 13 13 13 13 12 11 11 10 9 9 8 8 7 7 7 6 5 4 4 4 3 3 3 3 3 2 2 4 4 5 6 7 8 10 11 11 11 10 9 9 9 8 8 7 7 8 8 7 7 6 4 2 1 1 1 1 1 2 3 1 2 5 5 5 7 8 7 6 6 8 10 10 9
15 15 14 14 14 15 15 15 15 15 14 13 14 13 13 13 12 11 11 10 10 9 9 8 7 7 7 6 5 4 4 4 3 3 3 3 4 5 5 5 5 6 7 7 7 8 9 10 11 10 9 9 9 8 9 9 8 7 7 7 8 5 3 2 1 0 1 1 0 2 3 1 1 4 6 6 7 8 8 7 7 8 9 9 10
16 15 14 14 15 14 14 14 14 14 14 13 13 13 13 13 12 11 11 10 10 10 9 9 8 8 7 6 5 5 4 4 3 4 4 3 5 7 6 6 7 7 7 8 7 6 8 9 9 9 9 10 9 6 6 8 8 9 8 7 6 4 4 3 2 1 1 1 1 2 3 2 2 3 6 7 7 8 9 8 7 8 9 9 10
16 16 15 15 14 15 14 14 14 14 14 12 12 12 13 13 12 12 11 10 10 10 10 9 9 8 7 6 5 5 5 4 5 6 6 5 6 8 8 8 8 7 7 7 7 7 7 8 8 7 8 8 6 4 4 5 6 8 8 6 4 5 5 4 4 2 2 0 2 3 3 3 3 4 5 7 8 9 9 9 8 8 9 9 10
16 15 16 15 14 14 14 14 14 15 14 12 11 12 12 12 11 11 11 11 11 10 10 9 9 8 7 6 6 5 5 5 6 7 6 6 6 7 8 7 6 6 6 5 5 7 7 7 8 7 5 5 3 3 4 4 5 6 5 5 5 5 6 6 5 4 3 1 3 4 2 3 4 4 5 7 8 9 10 9 9 9 9 10 10
15 14 15 15 15 15 14 14 14 14 13 12 11 11 11 11 11 10 10 10 10 10 9 9 8 8 8 7 6 6 6 6 6 6 5 5 5 5 5 4 2 4 5 3 2 4 4 4 6 4 3 3 2 3 3 4 5 5 5 5 5 6 6 6 6 5 4 2 5 5 2 3 4 5 6 7 8 10 10 10 10 10 10 10 11
14 14 15 16 16 15 15 15 15 15 13 12 11 11 11 11 10 10 10 10 10 9 9 9 9 8 8 7 7 7 6 6 6 6 5 5 5 5 4 3 2 2 2 2 2 3 3 3 4 3 3 3 3 3 4 5 6 6 6 6 6 6 6 6 6 6 5 3 6 8 4 3 4 5 6 7 8 9 11 11 11 11 12 11 12
15 15 15 16 17 16 16 16 15 15 14 13 12 11 11 10 10 10 10 9 9 9 9 9 8 8 9 8 7 7 7 7 6 6 6 6 6 5 4 3 3 2 2 3 3 3 3 4 4 4 4 3 4 4 4 5 6 7 7 6 6 7 7 6 6 5 6 4 7 9 6 4 5 5 5 7 8 8 10 12 12 12 12 13 13
16 16 16 16 17 17 16 16 15 15 14 13 12 11 11 10 10 10 10 10 9 10 9 9 8 8 9 9 8 8 7 7 7 6 6 6 5 5 4 4 3 3 3 3 3 3 4 4 4 4 4 4 4 5 5 6 7 7 7 7 6 7 6 6 6 6 6 5 6 8 7 4 4 5 5 6 7 7 9 11 12 12 13 13 14
18 17 16 16 17 17 17 16 15 15 14 13 13 11 11 11 10 10 10 10 10 10 9 9 9 9 9 9 9 9 8 7 7 7 6 6 5 5 5 5 4 4 4 4 3 4 4 4 5 5 5 5 4 5 6 7 6 6 6 6 6 6 6 6 6 6 6 5 5 7 9 6 5 5 5 6 6 7 8 10 11 13 14 14 14
18 17 16 16 17 17 17 17 15 14 14 13 13 12 11 12 12 11 11 11 11 10 9 9 9 9 9 9 10 9 9 8 7 7 6 6 6 6 6 5 5 4 4 4 4 4 4 4 5 5 5 5 5 5 6 6 5 5 5 6 7 6 6 5 6 5 5 5 4 6 8 7 5 5 5 5 6 6 8 9 10 11 13 14 14
17 17 17 16 16 17 18 17 16 15 14 14 13 13 12 12 13 12 12 12 11 11 10 10 10 10 9 8 9 10 9 9 8 7 7 6 6 6 6 5 5 5 4 5 4 4 4 4 5 6 6 6 5 4 4 5 5 5 5 5 6 6 6 6 6 5 5 5 5 5 7 7 7 6 5 5 5 6 7 8 9 10 12 14 15
18 18 17 16 17 18 18 17 17 16 15 15 14 14 13 13 13 13 13 13 12 12 11 10 10 10 10 9 9 10 10 9 9 8 8 7 7 7 7 6 6 5 5 5 4 5 5 5 5 5 6 6 5 3 3 5 4 4 5 5 6 6 6 6 6 5 4 5 5 5 6 7 8 8 7 6 6 6 6 8 9 10 11 12 14
18 18 18 17 17 18 18 18 18 17 16 16 15 14 13 13 13 13 13 12 13 13 12 11 11 10 10 10 9 10 10 9 9 9 9 9 8 8 8 7 7 6 5 4 5 5 5 5 5 5 5 5 4 3 4 5 4 4 5 5 5 5 5 5 6 5 5 5 4 5 6 6 6 8 8 8 7 7 7 7 8 9 11 12 13
17 17 18 19 18 17 17 18 18 19 18 16 16 15 14 13 12 12 12 12 12 12 12 11 11 10 10 9 10 11 11 10 10 11 9 9 10 9 9 8 7 5 5 5 5 5 5 5 5 5 5 5 3 3 5 6 5 4 5 5 5 5 5 5 5 5 5 5 4 4 5 5 5 6 7 8 8 8 8 8 8 9 9 11 13
16 17 18 19 18 17 16 17 18 19 19 18 17 16 15 14 13 12 12 12 12 12 12 11 11 10 9 8 9 10 12 14 14 14 12 10 10 11 10 8 7 5 5 5 5 6 5 5 5 5 5 4 4 4 6 6 5 4 4 5 5 4 5 5 4 5 4 4 4 3 4 5 5 5 6 8 8 8 8 8 9 9 10 11 11
18 16 17 18 18 18 17 17 17 18 19 18 18 16 15 15 14 12 12 12 12 11 11 11 10 10 9 9 8 9 12 15 15 16 14 11 10 11 10 8 6 5 5 5 5 6 5 5 6 5 5 5 5 6 7 6 5 4 4 5 4 4 5 4 3 4 3 3 3 2 2 3 4 4 5 6 7 8 9 8 9 9 10 11 12
19 17 17 18 18 18 18 18 18 18 18 18 18 18 16 15 15 14 13 12 11 11 11 10 10 10 9 9 10 10 12 14 14 14 13 11 10 10 10 8 6 6 5 5 6 7 6 6 6 5 4 5 6 6 7 6 5 4 4 4 4 4 4 3 3 3 2 2 2 2 2 3 3 3 4 4 4 6 8 8 9 9 10 10 12
19 19 18 18 18 19 19 19 18 17 17 18 18 18 17 16 15 14 13 12 12 11 10 10 10 10 9 9 11 12 12 13 13 12 11 11 10 10 10 8 7 6 6 6 6 7 7 6 5 5 5 5 5 6 7 6 5 4 5 4 4 3 3 3 2 2 2 1 3 3 2 3 4 4 3 3 2 3 5 6 7 8 9 9 10
20 20 19 19 19 19 19 19 19 18 17 17 17 17 16 15 14 13 12 11 12 11 10 10 10 10 10 10 12 12 11 11 12 11 11 12 12 12 11 10 8 6 6 7 7 6 6 6 5 5 6 5 4 5 7 6 6 6 5 4 3 2 2 2 1 1 2 2 3 4 3 3 4 5 5 4 4 3 2 3 4 5 6 7 8
20 20 20 20 20 20 19 19 19 19 18 16 16 16 16 15 14 13 13 12 13 12 12 12 11 11 10 10 11 11 11 12 11 10 11 12 11 11 11 10 8 7 7 8 6 5 5 5 6 6 6 6 4 4 5 5 7 6 4 3 2 2 2 1 0 0 1 2 3 3 3 4 4 4 5 5 5 4 4 3 3 2 3 4 7
20 21 21 22 22 21 21 20 20 20 19 17 16 17 16 15 15 15 14 14 14 13 13 13 13 12 10 11 12 11 10 12 10 9 10 10 10 10 10 9 8 7 7 5 4 3 3 4 5 5 5 6 5 5 4 4 6 5 3 2 2 2 1 1 1 0 1 1 2 2 3 4 4 4 4 4 5 5 5 4 4 3 3 3 5
22 22 22 22 22 22 22 21 20 20 20 19 17 17 17 16 15 15 15 15 14 14 14 14 13 12 11 13 13 11 11 11 10 10 10 10 9 9 9 9 8 7 5 3 2 2 2 3 4 4 4 4 4 5 4 5 5 3 2 2 3 3 2 1 1 1 1 1 2 2 3 4 5 5 4 4 4 5 5 5 4 4 4 3 3
23 23 23 23 23 23 23 22 21 21 21 20 19 18 18 17 16 15 15 15 14 14 13 12 12 11 11 12 12 12 12 11 10 10 9 9 10 9 9 8 7 6 4 3 2 2 3 3 4 5 4 4 5 4 3 5 5 2 2 3 1 2 3 2 1 1 1 1 2 3 4 5 6 5 5 5 5 5 5 5 5 5 5 4 3
23 23 24 24 24 23 23 23 22 22 22 21 20 19 17 16 16 15 14 14 13 12 12 12 11 11 11 12 12 12 12 10 10 10 8 9 9 9 8 8 7 5 3 2 3 3 3 4 5 5 4 4 4 3 2 4 4 3 3 2 1 3 2 2 2 1 1 1 2 3 4 4 6 6 5 6 6 6 6 6 6 5 5 4 4
23 24 24 24 24 24 24 24 23 23 22 21 21 19 18 17 15 15 14 14 13 12 13 13 12 12 12 13 13 12 11 10 9 8 7 8 9 9 8 8 7 4 3 2 3 4 4 5 5 4 4 4 4 3 3 3 4 4 4 3 2 3 1 1 1 2 3 2 2 3 3 3 4 5 5 5 6 5 5 6 6 5 5 5 4
24 24 24 24 24 24 24 24 23 23 22 22 21 20 20 19 16 15 15 14 14 14 14 13 12 12 12 12 12 11 10 9 8 7 8 8 9 10 10 8 6 4 3 3 4 4 5 4 4 4 3 3 3 4 4 3 4 4 5 5 4 3 3 3 2 2 3 2 1 1 2 2 2 3 3 4 4 5 5 5 5 5 6 5 5
25 24 23 24 24 24 24 24 24 23 22 22 22 22 22 20 18 17 16 15 15 14 13 12 12 12 11 10 10 10 9 9 9 10 10 10 10 11 10 7 5 4 4 4 4 4 4 3 4 3 3 3 3 3 4 3 3 4 4 4 3 3 4 3 3 2 1 1 2 3 1 2 0 1 2 2 3 4 4 4 4 4 4 5 5
26 25 24 24 25 24 24 24 24 23 22 22 23 24 23 21 19 18 17 16 16 14 13 13 13 12 11 10 10 9 10 10 11 12 12 12 11 11 10 8 7 5 5 5 5 5 4 4 4 3 3 3 3 3 4 3 4 3 2 2 2 1 2 2 3 3 3 2 2 4 2 0 1 0 2 2 2 2 2 2 2 2 2 3 3
27 25 25 24 24 25 25 24 24 23 23 22 23 24 24 21 19 19 18 18 17 15 14 14 13 13 12 12 10 10 10 11 12 12 13 12 12 12 11 10 8 6 6 6 6 5 5 5 5 4 3 3 3 3 3 3 4 2 1 1 1 1 1 2 2 2 4 3 2 2 2 3 3 2 1 2 2 2 1 1 1 1 1 0 1
27 26 25 24 24 24 25 25 25 24 23 23 24 25 24 22 21 20 19 18 17 16 15 14 13 13 13 13 11 11 12 13 12 13 13 13 13 12 11 10 9 8 7 7 6 6 6 6 6 4 4 4 3 3 3 3 3 2 1 2 1 1 2 2 3 3 3 3 4 4 4 4 3 2 2 2 3 3 3 2 2 2 2 2 1
27 26 25 25 24 24 25 25 25 24 23 24 25 25 25 24 22 21 20 20 19 18 16 15 14 13 13 13 12 12 13 14 12 12 13 14 14 13 12 11 10 9 8 7 7 7 7 6 5 5 4 4 4 4 4 3 3 3 3 3 3 3 3 3 3 4 4 4 4 5 6 6 6 5 4 3 4 4 3 4 4 3 3 3 3
Wind_Direction
137 143 149 145 147 151 138 132 131 131 135 134 130 129 128 132 136 137 139 137 131 125 122 124 125 125 125 123 121 120 114 108 101 93 87 83 81 78 75 73 71 70 68 66 65 64 62 60 58 57 55 55 57 55 52 49 48 47 50 54 56 62 64 63 61 57 60 70 71 72 78 81 81 80 81 80 83 86 93 93 90 105 114 114 113
140 144 149 146 147 150 141 133 130 130 135 133 129 129 127 131 135 139 141 138 135 129 124 125 126 126 125 122 122 121 116 109 99 90 85 84 83 79 77 75 72 70 67 64 62 60 58 57 56 54 51 50 52 52 51 49 49 48 48 52 56 64 70 68 64 56 54 62 65 66 71 76 80 80 79 78 78 79 93 94 90 110 112 116 117
135 142 148 149 146 149 151 141 134 132 133 132 131 131 129 131 133 138 142 140 139 136 131 128 127 127 126 123 122 120 116 109 98 91 88 87 85 82 80 77 73 70 67 63 60 58 55 53 50 49 47 47 49 47 47 46 47 47 46 48 51 57 62 63 63 58 56 55 55 59 60 67 75 78 78 73 74 78 91 95 97 109 111 116 116
131 138 145 149 146 147 154 148 138 134 133 134 133 131 130 130 131 136 142 143 142 142 138 134 132 129 128 126 122 119 115 107 98 94 92 89 86 84 81 77 73 70 66 61 58 55 53 49 45 43 42 42 44 43 42 42 41 42 40 40 44 47 44 43 46 53 61 59 56 59 61 70 75 72 75 72 70 79 86 89 98 105 109 116 119
131 138 143 147 144 142 148 148 140 134 134 133 132 131 130 130 131 136 142 144 145 147 144 140 136 132 130 127 122 118 113 107 102 99 96 92 88 85 80 76 71 68 65 61 58 52 47 41 39 38 36 37 39 38 38 38 37 38 36 33 36 41 41 37 35 43 56 60 58 57 58 71 77 69 71 74 72 81 86 85 89 97 111 120 122
134 140 143 144 144 140 142 146 142 136 136 135 135 136 135 134 135 139 142 144 146 148 150 146 139 134 131 127 122 117 113 111 109 104 99 94 90 84 79 75 71 68 64 61 58 51 43 36 34 31 31 34 35 36 36 36 36 36 36 30 27 33 38 37 38 44 54 57 56 53 58 67 79 77 72 76 78 83 90 91 89 99 113 120 123
135 141 144 141 142 143 142 147 144 140 142 143 143 141 142 139 137 140 142 145 146 149 150 147 142 138 134 127 122 117 117 117 114 106 99 95 88 82 76 70 69 67 63 60 56 52 45 36 31 27 29 31 32 32 33 34 35 34 33 31 26 28 31 33 40 49 65 60 52 55 64 67 78 87 79 79 85 88 93 97 99 107 117 121 123
136 142 144 140 143 147 145 147 148 151 151 148 149 145 145 140 137 140 142 146 147 149 148 147 144 142 139 131 125 121 121 119 114 106 98 91 82 77 72 68 66 64 64 60 55 52 44 37 27 22 22 24 28 27 25 26 28 27 27 30 26 26 29 31 36 43 56 60 54 61 67 68 76 92 88 84 88 95 99 98 100 108 119 123 121
137 138 142 140 146 153 150 149 151 157 155 148 148 146 147 141 137 140 142 146 148 149 148 146 144 144 143 136 131 127 124 120 113 105 94 85 79 74 69 68 65 62 64 60 55 49 36 28 21 16 14 15 21 19 18 17 18 22 21 26 24 22 28 30 37 40 40 48 61 66 75 76 79 98 97 92 92 98 103 99 102 109 121 125 121
137 134 140 139 149 157 154 153 152 155 157 150 147 149 150 145 141 142 142 145 146 147 147 145 143 145 143 138 137 134 129 122 113 101 89 82 78 76 73 69 68 63 59 57 51 41 24 19 17 12 9 6 8 8 11 11 11 17 17 21 21 20 25 28 44 45 33 39 71 79 77 79 89 110 105 98 100 104 107 112 121 123 123 123 121
137 134 138 142 151 157 155 157 158 159 159 154 152 154 153 149 145 144 143 144 145 144 145 146 143 145 145 144 143 140 135 127 116 99 87 77 75 76 75 70 67 62 56 52 43 32 20 14 9 3 6 0 356 355 358 5 7 10 10 12 15 19 20 27 43 40 31 39 72 96 73 73 95 112 105 98 105 110 116 118 121 122 122 123 122
138 137 139 147 154 155 155 159 165 164 162 157 155 155 154 151 148 148 147 145 146 145 145 147 145 147 148 148 146 142 140 134 118 97 83 68 68 72 74 71 65 60 53 45 34 29 20 4 356 357 2 354 350 347 345 354 4 4 4 4 6 12 11 22 37 27 26 38 57 88 90 87 103 116 103 101 109 118 133 132 125 125 126 127 127
139 139 140 144 151 153 154 159 166 168 163 159 157 157 157 155 152 151 149 148 149 148 148 149 150 152 152 151 151 148 146 137 113 97 86 73 68 69 68 67 60 53 45 36 29 25 9 347 347 353 353 348 347 346 341 343 351 357 2 1 359 4 5 16 31 24 26 35 50 84 105 104 122 132 110 109 116 127 139 142 138 135 136 134 134
139 139 137 139 148 153 154 158 165 166 162 162 162 161 159 158 155 152 151 153 153 152 153 155 157 158 159 158 157 156 154 142 122 117 112 106 86 65 58 57 51 44 38 32 24 4 345 342 344 347 346 344 343 346 343 338 343 350 355 356 353 354 357 5 22 32 30 32 48 84 115 123 147 136 123 124 129 136 129 145 160 147 146 147 142
138 139 138 141 148 153 153 157 161 161 163 166 165 162 161 161 156 155 157 159 159 158 160 161 163 164 167 166 163 164 166 166 155 151 145 140 126 60 48 50 42 37 31 29 18 346 343 350 346 347 347 348 351 353 348 339 341 342 346 355 354 354 357 2 14 22 33 37 41 57 121 144 170 139 137 137 140 151 139 155 176 160 151 155 153
139 141 142 144 148 152 154 155 157 159 163 165 165 163 163 162 158 161 163 164 166 164 166 168 170 170 170 168 165 168 173 179 171 164 161 167 188 24 43 39 31 28 23 27 15 343 348 352 348 357 355 2 9 7 358 350 347 343 350 1 0 6 11 19 17 10 26 34 41 48 116 158 164 143 150 149 146 158 165 165 172 169 160 160 165
140 141 140 141 145 150 153 155 158 160 161 162 162 162 164 162 161 167 168 170 171 169 172 173 174 175 170 168 169 174 181 184 179 178 187 214 248 295 343 8 20 19 18 27 6 337 351 350 351 7 3 11 21 20 17 7 360 359 7 10 10 16 19 30 20 359 6 3 30 48 113 172 162 150 157 157 152 160 175 167 165 172 164 164 173
141 141 140 141 145 149 152 157 160 161 161 161 160 160 164 166 167 171 174 175 174 173 175 175 176 176 175 176 180 186 189 190 196 201 209 229 259 297 318 355 14 9 14 23 351 335 356 352 354 9 7 18 27 24 25 14 10 13 15 16 18 13 16 37 29 335 335 329 354 29 97 200 178 156 164 166 160 165 176 170 168 174 170 173 178
144 143 144 146 150 151 153 158 160 160 160 161 162 164 169 171 173 174 177 178 177 177 178 179 179 180 183 186 191 197 202 208 216 220 225 239 255 320 328 340 2 360 9 16 345 338 353 351 353 3 5 15 18 14 19 14 7 7 12 14 15 15 25 43 15 327 316 312 323 304 310 291 175 161 166 175 171 172 178 175 170 173 176 180 178
146 148 151 153 155 154 155 158 159 160 160 162 166 169 173 174 176 176 177 179 181 183 184 186 188 191 193 195 202 203 210 224 228 231 245 263 264 261 289 308 337 348 359 8 348 338 348 349 347 353 360 3 1 6 13 12 4 358 2 8 19 27 32 31 350 28 318 294 320 274 282 343 165 172 170 178 182 180 184 182 176 173 178 183 180
152 156 158 159 158 156 157 158 159 160 161 162 165 170 174 175 177 178 179 182 186 189 190 193 196 200 202 207 213 209 211 223 225 231 250 277 287 280 279 296 320 339 351 357 350 344 348 347 342 347 355 354 358 7 3 2 3 358 357 7 23 24 360 348 338 30 250 246 300 265 261 282 181 187 183 187 190 187 189 188 184 179 180 182 182
158 161 162 163 160 159 160 160 160 162 163 163 166 171 173 175 177 179 182 187 191 193 196 198 200 203 207 213 216 217 218 223 227 231 244 257 277 283 288 304 318 334 346 346 351 355 351 348 343 343 349 353 4 13 355 351 354 356 1 11 17 356 338 340 319 288 252 217 228 260 263 250 215 197 195 198 198 193 196 195 190 186 185 185 184
164 165 165 166 163 163 164 164 164 165 168 167 169 172 173 176 178 180 181 187 194 197 198 200 203 205 208 212 216 223 226 233 241 244 253 263 277 291 307 318 320 327 340 347 354 1 360 358 351 345 352 1 7 5 355 351 344 350 358 1 352 331 331 325 318 316 294 244 240 264 284 262 230 211 200 201 206 203 202 203 201 194 189 189 187
169 168 166 168 167 168 168 168 169 169 171 170 173 173 173 178 179 182 182 187 193 196 200 202 204 207 209 214 220 228 234 243 255 263 268 273 286 304 318 329 331 329 341 358 355 359 10 6 359 358 356 357 351 344 352 351 341 344 343 339 334 326 323 311 311 314 309 308 250 259 277 270 250 231 213 201 208 211 212 211 211 207 197 193 192
171 170 168 171 172 173 173 173 173 174 177 176 178 176 174 178 180 185 186 188 191 193 199 203 207 211 212 218 226 233 242 247 258 268 272 271 276 288 299 314 328 320 335 1 348 354 11 1 356 358 335 322 322 336 338 334 333 332 327 329 328 322 318 309 307 303 303 302 268 274 276 255 251 240 230 214 210 212 216 219 216 215 209 200 198
175 176 174 175 176 179 178 177 177 180 184 183 182 179 179 183 184 188 190 191 194 196 200 204 209 212 215 223 230 235 242 248 253 259 264 269 273 275 275 278 287 294 322 338 327 338 344 340 347 340 325 316 307 316 315 318 320 318 318 320 319 315 311 306 304 299 298 293 277 287 293 251 243 237 234 228 223 214 213 222 223 218 217 212 204
181 183 181 181 181 184 183 183 183 185 189 188 187 185 185 190 190 191 195 197 199 202 205 208 210 211 216 224 232 239 243 247 251 256 262 265 268 273 274 275 280 282 292 305 308 316 321 328 334 327 320 307 296 299 301 310 312 312 312 310 310 308 305 301 301 301 296 288 281 291 298 258 240 232 231 230 230 224 216 223 227 222 221 222 215
187 187 185 186 186 187 187 188 188 189 191 191 192 191 192 195 195 197 200 203 204 208 211 211 214 216 221 226 234 242 247 250 252 255 260 263 269 274 276 275 274 277 285 292 296 307 314 317 320 317 309 296 293 295 298 307 307 307 308 306 303 298 298 297 296 296 293 287 279 286 290 272 242 224 224 226 227 225 221 227 233 228 224 226 222
191 191 187 188 189 188 189 190 190 191 192 193 197 197 198 200 199 202 204 207 210 213 215 215 219 222 226 229 234 243 248 253 255 257 261 264 270 273 271 271 274 277 281 283 287 300 304 306 309 309 302 294 293 296 304 311 311 310 313 310 305 297 293 292 292 292 292 287 275 276 280 273 254 230 218 220 222 216 214 223 231 230 227 227 226
193 192 191 190 189 190 191 193 192 193 195 196 200 201 203 203 204 207 207 211 214 217 219 221 224 226 229 229 233 241 248 255 258 259 262 265 267 268 267 266 271 275 278 282 287 295 298 302 307 307 302 296 299 303 308 316 318 315 317 314 310 302 296 294 289 285 286 283 272 275 278 272 261 252 233 225 225 219 214 217 224 227 225 225 226
195 193 194 192 190 191 192 194 194 195 197 200 203 205 208 208 209 211 212 215 217 218 221 225 228 230 230 229 234 239 245 253 257 259 261 264 266 264 263 265 269 272 276 283 287 289 294 300 302 305 301 296 302 305 310 316 316 318 319 314 313 308 302 297 288 281 280 281 275 275 280 278 274 269 258 245 235 226 222 220 221 224 223 221 222
197 196 196 195 194 194 194 194 196 197 199 203 205 207 212 212 213 215 218 220 220 220 222 225 229 232 233 232 237 240 244 250 255 260 264 267 267 266 267 266 269 272 276 282 286 288 291 293 295 301 300 296 304 309 312 310 311 324 322 317 319 313 307 301 292 286 284 278 273 273 274 279 282 279 270 261 253 244 235 227 222 222 222 221 221
198 199 198 199 199 197 197 197 198 199 200 205 207 209 213 212 215 217 219 221 222 224 224 226 230 233 234 234 240 242 244 250 258 264 269 271 270 270 269 267 269 269 272 280 288 291 291 291 288 292 295 294 304 314 309 306 312 326 324 324 322 315 311 301 293 294 293 283 274 276 273 268 273 281 280 268 257 254 248 237 227 224 224 222 223
199 199 200 201 202 200 200 201 201 202 202 206 209 212 214 216 218 219 221 222 223 225 226 228 229 231 234 236 243 245 247 250 256 265 270 272 270 270 268 266 263 260 267 276 287 292 287 287 285 288 292 292 303 310 303 307 315 320 323 322 316 316 309 298 298 299 295 293 287 281 276 269 263 268 274 273 265 256 250 239 229 227 227 225 224
200 199 201 201 202 200 201 202 202 204 205 208 211 214 218 220 223 223 224 224 225 227 227 228 227 231 235 236 240 243 249 253 257 266 270 269 267 264 264 261 253 254 265 267 279 286 280 280 284 289 292 292 303 300 297 304 309 312 320 314 308 311 302 298 306 300 296 301 295 287 281 278 271 262 259 267 272 261 250 239 231 228 228 230 228
200 200 198 199 202 201 201 203 202 203 206 209 212 216 219 221 225 227 227 225 227 229 229 230 229 231 233 234 235 237 250 259 262 266 265 260 259 259 258 254 250 256 260 262 275 277 271 275 279 282 289 294 300 299 297 301 303 304 307 304 301 300 294 297 300 299 319 316 299 302 305 298 290 284 269 260 263 265 261 244 234 235 234 235 233
199 200 198 198 202 203 204 205 205 204 206 210 212 215 218 221 224 227 230 228 229 231 230 231 229 229 231 230 233 236 250 262 263 262 256 248 249 255 256 249 245 252 254 261 268 263 262 270 271 269 278 291 297 301 300 303 306 302 299 299 299 292 286 296 300 308 327 317 318 343 351 345 334 322 300 275 258 263 275 264 241 239 240 240 239
201 202 201 201 203 205 207 208 209 207 207 209 210 214 217 220 224 227 229 229 230 231 228 228 228 231 233 234 242 246 249 254 255 254 249 242 240 243 251 250 243 244 245 247 252 255 260 263 262 258 266 285 296 301 303 308 310 300 297 296 287 282 280 287 296 305 310 334 352 346 360 9 2 8 3 343 327 274 280 286 265 249 246 246 243
203 204 203 204 206 207 209 210 211 211 210 209 209 212 216 219 222 224 225 224 226 226 223 226 229 233 233 236 249 252 248 247 249 247 243 243 239 233 240 244 240 236 233 238 244 251 255 255 256 254 260 269 277 292 297 302 303 296 296 293 267 251 262 277 290 308 326 359 357 332 352 22 15 18 24 23 21 16 336 312 293 272 264 263 259
204 204 204 206 207 208 209 210 211 212 211 208 207 210 213 215 216 218 220 221 223 223 223 227 230 235 235 237 248 250 247 246 244 240 241 246 242 235 236 234 229 228 230 238 244 249 255 258 259 259 267 269 259 269 282 291 297 294 285 274 240 213 202 203 244 61 354 7 360 337 350 16 21 22 21 25 28 30 24 7 349 328 299 289 292
204 204 205 206 207 208 209 211 211 211 211 209 208 210 212 212 212 216 221 223 222 221 223 226 229 232 229 235 247 245 242 246 240 231 234 239 237 236 234 225 220 222 226 231 237 248 263 268 269 267 272 274 262 259 264 271 280 279 257 223 185 192 183 156 171 23 359 2 16 1 2 13 19 22 24 24 22 26 25 16 8 1 347 322 325
204 205 206 207 208 209 210 211 211 211 213 213 213 214 214 215 215 220 225 226 224 222 224 226 229 231 225 232 242 234 231 239 234 226 228 232 233 228 221 215 211 208 209 209 213 241 252 258 267 261 259 265 267 271 263 256 267 291 286 243 179 180 197 189 244 282 330 351 34 41 30 30 32 25 24 32 31 30 28 22 16 9 3 349 342
206 206 207 208 208 210 211 212 212 213 215 215 215 216 217 218 220 222 226 229 228 228 232 234 233 233 228 230 233 229 230 233 231 231 233 235 233 226 216 208 197 189 191 202 216 232 237 239 244 245 252 256 258 267 267 267 284 313 265 252 220 204 205 189 222 270 340 359 42 63 50 44 46 40 31 36 39 39 38 32 29 26 16 7 5
206 207 207 208 209 210 212 212 214 215 216 215 214 216 217 217 220 222 225 231 233 233 237 238 233 232 229 225 225 227 230 233 235 235 235 236 230 223 214 197 188 186 189 209 228 228 221 226 228 230 249 266 269 270 274 284 295 297 266 264 282 264 238 179 185 217 244 211 82 70 68 65 55 46 39 39 39 39 42 40 40 39 30 25 21
205 207 207 207 209 210 211 212 214 216 216 215 213 213 215 212 210 215 222 230 235 234 233 232 228 229 231 227 224 228 231 233 234 228 225 233 226 215 205 195 193 191 192 220 237 231 226 228 229 227 239 269 288 289 285 289 292 294 294 301 285 267 310 34 206 235 256 253 96 80 75 77 64 53 41 38 40 39 43 43 44 46 42 41 34
205 206 206 207 208 209 210 211 213 215 215 215 213 213 215 213 209 213 220 225 228 228 227 229 229 228 231 231 227 227 228 227 224 219 217 221 219 207 200 201 204 205 212 232 236 234 235 232 233 237 239 253 274 284 279 277 290 289 282 291 296 307 344 340 299 246 254 271 232 168 130 77 47 59 50 41 44 39 39 41 43 48 47 48 47
206 205 206 207 208 209 210 210 212 214 214 214 213 214 217 218 218 221 223 224 226 226 225 229 231 229 229 232 227 222 221 217 213 213 211 212 211 205 203 206 213 222 229 234 236 238 241 232 228 237 241 234 231 262 272 268 282 284 274 280 290 316 341 334 318 302 242 236 257 256 188 119 357 27 33 32 51 43 37 36 36 44 51 56 54
206 204 205 207 208 209 210 211 213 214 214 213 212 215 218 219 220 223 225 225 226 226 223 223 226 226 226 227 223 218 216 214 214 211 207 207 206 204 207 208 214 225 228 232 238 239 238 230 224 220 224 226 217 245 271 276 274 266 258 270 280 333 346 345 345 331 304 268 234 245 236 232 264 295 1 354 20 27 26 30 21 22 40 60 60
206 205 205 207 208 209 211 212 213 215 214 212 212 215 218 218 220 222 224 224 226 227 223 220 223 223 224 223 217 215 216 214 215 215 209 205 205 206 210 211 214 222 224 228 230 229 230 227 225 220 217 224 219 235 255 262 269 264 200 215 244 353 312 316 321 305 297 293 271 246 255 272 255 224 305 326 349 346 328 325 312 287 291 20 69
205 205 206 207 207 208 210 211 213 215 214 212 214 216 216 216 218 221 223 223 224 226 225 221 221 221 221 219 212 212 216 214 215 216 212 207 206 207 210 213 218 223 222 224 225 225 225 223 225 226 224 225 216 223 237 238 257 264 181 177 173 202 258 277 269 263 271 275 280 282 273 269 273 271 267 297 329 318 303 302 277 265 270 257 251
203 204 205 206 207 207 208 210 211 213 212 212 214 216 216 215 217 219 222 223 223 223 223 221 220 217 218 218 215 216 218 217 215 214 213 211 208 208 212 217 222 225 222 222 224 223 221 219 218 217 216 219 216 218 231 231 227 222 200 190 196 214 233 253 262 269 272 269 276 286 290 301 310 298 266 271 300 286 275 281 268 270 272 262 261
Height
818 819 819 819 821 821 823 823 823 824 826 827 827 829 829 831 831 833 834 834 835 836 837 838 839 840 841 841 842 843 844 844 845 845 846 846 847 847 848 848 848 849 849 849 850 850 851 851 851 851 851 851 851 850 850 849 849 848 848 848 848 848 848 848 848 848 848 847 847 847 847 848 848 848 849 849 849 849 849 849 850 850 850 850 850
817 820 820 821 821 822 824 824 826 827 829 830 830 831 831 832 833 834 835 836 837 837 838 839 840 841 842 842 843 844 845 845 846 846 847 848 848 848 849 849 849 850 850 851 851 851 852 852 852 852 852 852 851 851 851 850 850 849 849 848 848 848 847 847 848 848 849 848 848 848 848 848 849 849 849 850 850 850 850 850 850 851 850 850 851
817 820 821 822 823 824 825 826 828 829 831 831 832 832 833 834 835 836 837 838 838 839 840 840 841 842 843 844 845 845 846 846 847 847 848 849 849 849 849 850 850 851 852 852 852 852 853 853 853 852 853 852 852 852 851 851 850 850 849 848 848 848 848 847 848 848 849 849 849 849 848 849 849 849 850 850 850 850 851 851 851 851 850 851 852
818 820 822 823 824 825 827 829 830 831 832 832 834 834 835 836 837 838 838 839 839 840 841 841 843 843 845 845 846 846 847 848 848 849 849 850 850 850 850 851 851 852 853 853 853 853 853 854 853 853 853 853 853 852 852 851 851 850 849 849 849 849 849 848 848 848 848 849 849 849 850 850 850 850 850 851 851 851 851 851 851 852 852 852 853
819 821 822 823 825 827 828 830 831 832 833 834 835 835 836 837 837 838 839 840 840 841 842 843 844 844 846 846 847 847 848 849 849 850 850 851 851 851 851 852 853 853 854 854 854 854 854 854 854 854 854 854 853 853 853 852 851 850 850 850 849 849 849 849 849 849 849 849 849 850 850 850 850 851 851 851 852 852 852 852 852 853 853 853 854
819 821 823 824 826 827 829 830 832 833 834 835 835 836 837 837 838 839 840 840 841 842 843 844 845 846 847 847 848 848 849 850 851 851 852 852 852 852 853 853 854 854 855 855 855 855 855 855 854 854 854 854 854 853 853 852 851 850 850 850 850 850 849 849 849 849 849 849 850 850 851 851 851 851 852 852 853 853 853 853 854 854 854 854 854
820 822 824 825 828 828 830 831 832 833 834 835 835 836 838 838 839 840 840 841 842 843 844 845 845 847 847 848 849 849 850 851 852 852 853 853 853 854 854 855 855 856 856 856 856 857 856 856 855 855 854 854 854 853 853 852 851 850 851 850 850 850 850 850 849 850 850 849 850 850 851 851 852 852 852 853 853 854 854 854 854 855 855 855 856
821 822 824 826 828 829 830 832 833 834 835 836 836 837 839 840 840 841 842 842 844 844 845 845 846 847 848 849 849 850 851 852 853 853 854 854 854 855 855 856 856 857 857 858 858 858 857 856 856 855 854 854 854 853 853 852 852 851 851 851 851 850 850 850 850 850 850 850 851 850 851 851 852 853 853 853 854 854 854 855 855 855 856 857 857
822 823 825 827 828 829 831 832 833 834 835 836 837 838 840 841 841 842 843 843 844 845 846 846 847 849 849 850 851 852 852 853 854 854 855 854 855 856 856 857 857 858 859 859 859 859 857 857 856 855 855 855 854 854 853 852 852 852 851 852 851 851 850 850 850 850 851 851 851 851 851 851 852 853 853 853 854 855 855 856 856 856 857 857 858
823 824 826 827 828 829 831 833 833 834 835 836 838 839 841 841 842 843 844 844 845 846 847 847 848 849 850 851 852 853 853 854 854 855 855 855 856 857 857 858 859 859 859 860 860 859 858 857 857 856 856 855 854 854 854 853 852 852 852 852 852 852 851 851 850 850 852 852 851 851 851 851 853 853 853 853 854 855 855 856 857 857 857 858 858
823 825 826 828 829 830 832 834 834 836 837 838 839 840 841 842 843 844 845 845 846 847 847 848 849 850 851 852 853 853 854 854 855 855 855 856 857 857 858 859 859 860 860 861 860 859 858 858 857 856 856 855 855 854 854 853 853 852 852 852 852 852 852 851 850 851 852 851 851 851 852 852 853 853 853 853 854 855 856 856 857 857 857 858 859
824 826 827 829 829 831 832 834 836 837 838 839 840 841 842 843 844 845 846 846 847 848 848 849 850 851 852 852 853 854 854 855 855 856 856 857 857 858 859 859 860 861 861 861 860 859 858 857 857 857 856 855 855 854 854 853 853 853 853 852 852 852 852 851 851 852 852 851 851 852 852 853 853 853 853 854 854 855 856 856 857 857 858 858 859
825 826 828 829 830 832 833 835 836 838 839 840 841 842 843 843 845 845 846 847 848 848 849 850 850 851 852 853 853 854 855 855 856 857 857 858 858 858 859 860 861 861 861 861 861 859 858 857 857 857 856 855 855 854 854 853 853 853 853 853 852 852 852 852 852 852 852 851 851 852 852 853 853 853 853 854 854 855 856 856 857 858 858 859 859
825 827 828 830 831 833 834 836 837 838 839 840 842 843 844 844 845 846 847 848 848 849 849 850 851 852 852 853 854 854 855 856 857 857 858 858 858 859 860 861 861 862 862 862 861 859 858 857 857 857 856 855 854 854 853 853 853 853 853 852 852 852 852 852 852 852 852 851 851 852 852 853 853 853 854 855 855 855 856 857 857 858 859 859 860
826 827 829 830 831 833 835 836 837 838 839 840 842 843 844 845 846 846 847 848 849 849 850 850 851 852 853 853 854 854 856 856 857 858 859 859 859 860 860 861 862 862 862 863 862 859 858 857 857 856 855 855 854 854 853 853 853 853 852 852 852 851 851 851 851 852 852 851 851 851 852 852 852 852 853 854 855 855 856 856 857 858 859 859 860
827 828 829 831 832 834 835 836 837 839 840 841 842 843 844 845 846 847 848 848 849 850 850 851 851 852 853 854 854 855 856 857 858 858 859 859 860 860 861 862 862 863 863 864 863 859 858 857 856 856 855 855 854 853 853 853 852 853 852 851 851 851 851 851 851 852 852 852 851 851 852 852 851 852 853 853 855 855 856 856 857 858 858 860 860
827 829 830 831 833 834 835 836 838 839 841 842 843 843 844 845 846 847 848 849 849 850 851 851 852 853 853 854 855 856 857 857 858 859 859 860 860 861 861 862 862 863 863 864 862 858 858 857 855 856 855 854 854 853 853 853 853 852 852 851 851 851 850 850 851 851 852 851 851 851 851 851 851 851 852 853 854 855 856 856 857 858 858 860 861
828 829 830 832 833 835 836 837 838 840 841 842 843 843 844 845 847 848 849 849 850 851 851 852 852 853 854 854 855 856 857 857 858 859 859 860 860 861 861 861 862 862 863 863 861 858 859 857 855 856 855 854 854 853 853 852 852 852 852 851 851 851 850 850 851 851 851 851 851 851 851 851 851 851 851 852 853 854 855 856 856 857 858 859 860
829 830 831 832 833 835 836 837 838 839 840 841 843 844 845 846 847 848 849 850 851 851 852 852 853 854 854 855 856 856 857 857 858 858 859 859 860 861 861 861 862 862 863 863 860 858 859 857 855 856 855 855 854 854 853 852 852 852 851 851 851 851 850 851 851 851 851 851 851 851 851 851 851 851 851 852 853 853 854 855 856 857 858 859 860
829 830 831 833 833 835 836 837 838 839 841 842 843 844 845 846 847 849 849 850 851 851 852 853 853 854 854 855 855 856 857 857 858 858 859 859 859 860 861 861 861 862 862 862 860 858 858 857 856 856 855 855 854 854 853 853 852 852 851 851 850 850 851 851 851 850 850 850 850 850 850 851 850 850 851 851 852 853 854 854 855 856 857 858 859
829 830 831 833 833 835 836 837 838 840 841 842 843 844 845 846 847 848 849 850 851 852 852 853 853 854 855 855 855 856 857 857 858 858 859 859 859 860 860 860 861 861 861 861 861 859 858 857 856 855 855 855 854 854 853 852 852 852 852 851 850 851 851 851 850 850 850 850 850 849 850 850 850 850 851 851 852 852 853 854 855 855 856 857 858
828 830 831 833 833 835 836 838 839 840 841 842 843 844 845 846 847 848 849 850 850 851 852 853 854 854 855 855 856 856 856 857 857 858 859 859 859 859 860 860 860 860 860 860 860 859 858 857 856 856 855 855 854 854 854 853 852 852 851 851 851 851 851 850 850 850 849 849 849 849 849 849 849 850 850 851 851 852 853 853 854 855 855 856 858
827 829 831 832 834 835 836 838 838 840 841 842 843 844 845 846 847 848 849 850 850 851 852 853 854 854 855 855 856 856 856 856 857 857 858 858 859 859 859 859 859 859 859 859 859 859 858 857 857 856 855 855 855 855 854 854 853 852 852 852 852 851 851 850 850 849 849 849 849 848 848 848 849 849 850 850 851 852 852 853 853 854 854 855 857
827 828 830 832 834 835 836 837 838 839 841 841 843 843 844 846 847 848 849 850 850 851 852 852 853 853 854 854 855 855 856 856 856 856 857 858 858 858 858 858 858 858 859 859 859 858 858 857 856 856 855 855 855 855 854 854 854 853 853 853 852 851 851 850 850 849 849 849 848 847 848 848 848 848 849 849 850 851 852 852 852 853 854 854 855
827 828 830 832 833 834 835 836 838 839 840 841 842 843 844 845 846 847 848 849 850 851 851 852 852 853 853 854 855 855 855 856 856 856 856 857 857 858 858 858 858 858 858 858 859 858 858 857 857 856 856 855 855 855 854 854 854 853 853 853 852 851 851 850 850 849 849 848 847 847 847 847 847 848 848 848 849 850 851 852 852 853 853 854 855
827 828 829 831 832 833 835 836 837 838 840 841 842 843 844 845 846 847 848 849 849 850 851 851 852 852 853 854 854 854 855 855 855 855 856 856 857 857 857 858 858 858 858 858 858 858 857 857 857 856 856 855 855 855 854 854 853 853 852 852 852 851 850 850 849 849 848 848 847 846 847 847 847 847 847 848 848 849 850 851 851 852 852 853 854
826 827 828 830 831 833 834 835 837 838 839 840 841 842 843 844 845 846 847 848 849 849 850 851 851 852 852 853 853 854 854 854 854 855 855 855 856 856 856 857 857 857 857 857 857 857 857 856 856 856 855 855 854 854 853 853 852 852 852 851 851 850 850 849 849 848 848 848 846 845 846 846 846 846 846 847 847 848 849 849 850 851 852 852 853
824 826 828 829 831 832 833 835 836 837 838 839 840 841 842 843 844 845 846 847 848 848 849 850 851 851 852 852 853 853 853 853 853 854 854 854 855 855 856 856 856 856 856 857 857 856 856 856 856 855 855 855 854 854 853 852 852 851 851 850 850 849 849 848 848 848 847 847 846 845 845 845 845 845 845 846 846 847 847 848 849 849 851 851 853
822 824 826 828 830 831 832 834 835 836 838 839 840 841 842 843 844 844 845 846 847 848 848 849 850 850 851 851 852 852 852 852 853 853 853 854 854 855 855 855 855 856 856 856 856 856 856 856 856 855 855 854 853 853 852 852 851 850 850 849 849 849 848 848 847 847 847 847 846 845 844 844 844 844 845 845 845 846 846 847 847 848 849 850 852
822 823 825 827 828 830 832 833 834 836 837 838 839 840 841 842 843 843 844 845 846 847 848 848 849 849 850 850 850 851 851 852 852 852 853 853 854 854 854 855 855 855 855 855 855 855 855 855 855 855 854 854 853 853 852 851 851 850 850 849 849 848 847 847 847 846 846 846 846 845 844 843 843 843 844 844 844 844 845 845 845 846 847 849 850
821 823 824 826 827 829 830 832 834 835 836 837 838 839 840 841 842 842 843 844 845 846 847 847 848 848 849 849 849 850 851 851 851 852 852 853 853 854 854 854 854 854 855 854 855 855 855 855 854 854 854 853 853 852 851 851 850 850 849 848 848 847 847 846 846 845 845 845 845 844 843 843 843 842 843 843 843 843 844 844 845 845 846 847 849
820 821 823 825 826 828 829 831 833 834 835 836 837 838 839 840 841 841 842 843 844 845 846 847 847 848 848 848 849 849 850 850 851 851 852 852 853 853 853 854 854 854 854 854 854 854 854 854 853 853 853 853 852 851 851 850 850 849 848 848 847 847 846 846 845 844 844 844 844 844 843 843 842 842 842 842 842 842 843 843 844 845 845 846 847
818 820 821 823 825 826 828 830 831 832 833 835 836 837 838 839 840 840 841 842 843 844 845 846 846 847 847 847 848 849 849 850 850 851 851 852 852 852 853 853 853 853 853 853 852 853 853 853 853 853 853 852 851 851 850 850 849 849 848 847 847 846 846 845 844 844 843 843 843 843 843 842 842 841 841 841 841 841 842 842 843 843 844 845 846
816 818 820 821 823 825 827 828 830 831 832 834 835 836 837 838 839 839 840 841 842 843 843 845 845 846 846 847 847 848 849 849 850 850 850 851 851 851 852 852 852 852 852 852 852 852 852 852 852 852 852 852 851 851 850 849 849 848 848 847 846 846 845 844 844 843 843 842 842 842 842 842 841 841 841 840 840 841 841 841 842 842 843 844 845
814 816 818 820 822 823 825 827 828 829 831 832 834 835 836 837 838 838 839 840 840 842 842 843 844 845 845 846 846 847 847 848 848 848 849 850 850 850 851 851 850 850 850 850 850 851 851 851 851 851 851 851 850 850 850 849 849 848 847 847 846 845 845 844 843 843 842 842 842 842 841 841 841 841 841 840 840 840 840 840 840 841 841 842 843
813 815 817 818 820 821 823 825 826 828 829 831 832 834 835 835 837 837 838 839 839 840 841 842 843 843 844 845 845 845 846 846 846 847 847 848 848 849 849 849 849 848 849 849 849 850 850 850 850 850 850 850 850 849 849 848 848 847 847 846 845 845 844 843 843 842 842 842 842 841 841 841 840 840 840 840 840 839 839 839 840 840 840 841 841
811 814 815 817 818 820 822 823 825 826 827 829 831 832 833 834 835 836 837 837 838 839 839 840 841 842 842 843 843 843 844 844 844 844 845 846 846 847 848 847 847 847 847 847 848 848 848 848 848 849 849 849 849 848 848 847 847 847 846 846 845 844 844 843 843 842 842 842 841 841 841 840 840 839 839 839 839 839 838 839 839 839 839 840 840
810 812 814 815 817 818 820 822 824 825 826 828 829 831 831 832 833 834 835 836 837 837 838 839 839 840 841 841 841 841 842 842 842 842 843 844 844 845 846 846 845 845 846 846 846 846 847 847 847 848 848 848 848 848 847 847 847 846 846 845 845 844 843 843 843 842 842 841 841 841 840 840 840 839 839 838 838 838 838 838 838 839 839 839 839
808 810 812 814 815 817 819 820 822 823 825 826 828 829 830 831 832 833 834 834 835 836 836 837 837 838 838 839 839 839 840 840 841 841 841 842 842 842 843 844 844 844 844 844 845 845 846 846 846 847 847 847 848 848 847 847 846 846 845 844 844 844 844 843 843 842 842 841 841 841 840 840 840 839 839 838 838 838 838 838 838 838 838 839 839
806 808 810 812 813 815 817 818 820 822 824 825 826 827 828 829 830 831 832 832 833 833 834 835 835 836 836 837 837 837 838 838 839 839 839 840 840 841 841 842 843 843 843 843 844 844 845 845 846 846 846 846 847 847 847 847 846 845 844 844 844 843 843 843 843 843 842 842 842 841 840 840 840 840 839 839 839 838 838 838 838 838 838 838 838
803 806 807 809 811 813 815 816 818 820 821 822 823 824 825 826 827 828 829 830 831 832 832 833 833 834 835 835 835 835 836 836 837 838 838 839 839 840 841 841 841 842 843 843 844 844 844 845 845 845 846 846 846 846 846 846 845 844 843 843 843 843 843 843 843 842 842 842 842 842 841 841 841 840 840 839 839 838 838 838 838 838 838 838 838
800 803 804 807 809 810 812 814 815 817 818 819 821 822 823 824 825 826 827 828 829 829 830 831 832 832 833 833 833 834 835 835 836 836 837 838 838 839 840 840 840 841 842 843 843 844 844 845 845 845 845 845 845 845 845 845 844 842 842 841 842 843 843 842 842 842 841 842 842 842 842 842 841 841 840 840 839 839 839 838 838 838 838 838 838
797 799 801 804 806 807 809 811 813 814 815 817 818 819 821 822 823 824 825 826 827 827 828 829 830 830 831 831 832 833 833 834 834 835 836 837 838 838 839 839 840 841 842 842 843 843 844 844 845 845 845 845 845 845 845 844 843 842 843 842 841 841 842 842 841 842 841 841 842 842 842 842 842 842 841 840 840 839 839 839 839 838 838 838 838
794 796 798 800 802 804 806 808 810 811 812 814 815 817 819 820 821 822 823 824 825 826 827 827 828 829 829 830 831 832 832 833 834 835 836 836 837 837 838 839 840 841 841 842 843 843 844 844 844 845 845 844 843 843 845 845 844 843 842 842 840 840 841 840 839 841 841 841 841 842 843 843 842 842 842 841 841 840 840 839 839 839 839 838 838
790 792 794 796 798 800 803 805 807 808 810 812 814 816 817 818 819 821 822 823 823 825 825 826 826 827 828 829 830 831 831 832 833 834 835 836 836 837 838 839 840 840 841 842 842 843 843 844 844 844 845 844 843 843 844 844 845 844 843 842 842 842 841 838 839 841 841 840 841 842 843 843 842 843 842 842 841 840 840 839 839 839 839 838 838
785 788 790 793 795 797 799 802 804 805 807 809 811 814 815 816 817 818 820 820 821 822 823 824 825 826 826 827 828 829 830 832 833 834 835 835 836 836 837 838 839 840 840 841 842 842 843 843 843 844 844 844 844 844 844 844 844 845 844 843 844 844 842 840 841 843 842 840 840 842 842 843 843 842 842 842 841 841 840 840 839 839 839 838 838
782 785 788 790 792 794 796 799 801 802 804 807 809 811 812 814 815 816 817 818 819 819 821 822 823 824 825 826 827 828 829 831 832 833 834 834 835 835 837 838 839 839 840 841 841 842 842 842 843 843 843 844 844 844 844 843 844 844 844 844 844 844 844 844 843 843 844 843 841 841 841 842 842 842 841 841 841 841 840 840 839 839 838 838 838
779 782 784 787 789 791 794 796 798 800 801 804 806 808 810 811 813 814 815 816 817 818 820 821 822 823 824 825 826 827 828 829 831 831 832 833 834 835 836 837 838 839 839 840 840 841 841 842 842 842 843 843 844 844 843 843 843 843 844 844 844 844 845 845 845 845 844 844 842 840 840 841 842 841 841 841 840 840 840 840 839 839 838 838 838
776 778 781 783 786 788 791 793 795 797 799 801 803 805 807 809 811 812 813 815 816 817 818 819 820 821 823 824 825 826 827 828 830 830 831 832 833 834 835 836 837 837 838 838 839 840 840 841 841 842 842 843 843 843 843 844 843 842 843 844 844 844 844 845 846 846 845 844 842 839 840 841 840 841 841 840 840 840 840 839 839 839 838 838 837
772 775 778 780 783 785 787 790 791 794 796 798 800 802 804 806 808 810 811 813 814 815 816 817 818 820 821 822 823 825 826 827 828 829 830 831 832 833 834 835 836 836 837 837 838 838 839 840 841 841 842 842 843 843 843 843 843 842 843 844 844 844 844 844 844 844 844 845 844 840 839 839 838 839 840 840 840 840 839 839 839 838 838 837 837
769 772 775 777 779 782 784 786 788 791 793 795 797 799 801 803 805 807 808 810 812 813 813 815 816 818 819 820 822 823 825 826 827 828 829 830 831 832 833 834 835 835 836 837 837 838 838 839 840 840 841 842 842 842 842 842 842 843 843 843 843 843 843 843 843 844 844 843 843 841 838 838 839 839 840 840 840 840 839 838 838 837 837 837 836